• In Portugal
  • List of Countries
  • For 7 days
  • Water Temperature
  • Satellite Maps
  • Weather Map
  • Weather Widgets
  • user-avatar
    Login

    Hourly Weather Tuzla

    Today, 23 August, Wednesday

    Time Temperature Precipitation Wind Pressure Humidity
    00:00 +12°C° 0 mm 1 mps 723 mmHg 68%
    01:00 +11°C° 0 mm 1 mps 723 mmHg 69%
    02:00 +11°C° 0 mm 1 mps 723 mmHg 70%
    03:00 +11°C° 0 mm 1 mps 723 mmHg 71%
    04:00 +11°C° 0 mm 1 mps 723 mmHg 71%
    05:00 +12°C° 0 mm 1 mps 723 mmHg 66%
    06:00 +14°C° 0 mm 1 mps 724 mmHg 60%
    07:00 +16°C° 0 mm 1 mps 724 mmHg 54%
    08:00 +20°C° 0 mm 1 mps 724 mmHg 47%
    09:00 +22°C° 0 mm 1 mps 725 mmHg 40%
    10:00 +25°C° 0 mm 1 mps 725 mmHg 34%
    11:00 +26°C° 0 mm 1 mps 725 mmHg 32%
    12:00 +27°C° 0 mm 1 mps 725 mmHg 29%
    13:00 +28°C° 0 mm 1 mps 725 mmHg 27%
    14:00 +27°C° 0 mm 1 mps 724 mmHg 28%
    15:00 +27°C° 0 mm 1 mps 724 mmHg 28%
    16:00 +27°C° 0 mm 1 mps 724 mmHg 28%
    17:00 +24°C° 0 mm 1 mps 724 mmHg 36%
    18:00 +21°C° 0 mm 1 mps 723 mmHg 43%
    19:00 +16°C° 0 mm 0 mps 723 mmHg 50%
    20:00 +18°C° 0 mm 1 mps 723 mmHg 52%
    21:00 +16°C° 0 mm 1 mps 724 mmHg 53%
    22:00 +15°C° 0 mm 1 mps 724 mmHg 55%
    23:00 +15°C° 0 mm 1 mps 724 mmHg 56%

    Tomorrow, 24 August, Thursday

    Time Temperature Precipitation Wind Pressure Humidity
    00:00 +15°C° 0 mm 1 mps 724 mmHg 56%
    01:00 +14°C° 0 mm 1 mps 724 mmHg 57%
    02:00 +14°C° 0 mm 1 mps 724 mmHg 57%
    03:00 +14°C° 0 mm 1 mps 724 mmHg 58%
    04:00 +14°C° 0 mm 1 mps 724 mmHg 58%
    05:00 +16°C° 0 mm 1 mps 724 mmHg 55%
    06:00 +18°C° 0 mm 1 mps 724 mmHg 52%
    07:00 +20°C° 0 mm 1 mps 725 mmHg 49%
    08:00 +23°C° 0 mm 1 mps 725 mmHg 42%
    09:00 +27°C° 0 mm 1 mps 725 mmHg 36%
    10:00 +28°C° 0 mm 0 mps 726 mmHg 30%
    11:00 +31°C° 0 mm 1 mps 726 mmHg 28%
    12:00 +32°C° 0 mm 1 mps 726 mmHg 26%
    13:00 +32°C° 0 mm 1 mps 725 mmHg 25%
    14:00 +32°C° 0 mm 1 mps 725 mmHg 25%
    15:00 +32°C° 0 mm 2 mps 725 mmHg 26%
    16:00 +31°C° 0 mm 2 mps 725 mmHg 26%
    17:00 +28°C° 0 mm 1 mps 724 mmHg 33%
    18:00 +25°C° 0 mm 1 mps 724 mmHg 40%
    19:00 +22°C° 0 mm 1 mps 724 mmHg 47%
    20:00 +22°C° 0 mm 1 mps 724 mmHg 48%
    21:00 +21°C° 0 mm 1 mps 724 mmHg 50%
    22:00 +20°C° 0 mm 1 mps 725 mmHg 52%
    23:00 +20°C° 0 mm 1 mps 725 mmHg 53%

    Day after tomorrow, 25 August, Friday

    Time Temperature Precipitation Wind Pressure Humidity
    00:00 +19°C° 0 mm 1 mps 725 mmHg 54%
    01:00 +19°C° 0 mm 1 mps 725 mmHg 55%
    02:00 +19°C° 0 mm 1 mps 725 mmHg 56%
    03:00 +18°C° 0 mm 1 mps 725 mmHg 56%
    04:00 +17°C° 0 mm 2 mps 725 mmHg 57%
    05:00 +20°C° 0 mm 1 mps 725 mmHg 54%
    06:00 +21°C° 0 mm 1 mps 725 mmHg 52%
    07:00 +23°C° 0 mm 1 mps 725 mmHg 49%
    08:00 +26°C° 0 mm 1 mps 726 mmHg 41%
    09:00 +29°C° 0 mm 1 mps 726 mmHg 33%
    10:00 +33°C° 0 mm 1 mps 726 mmHg 26%
    11:00 +34°C° 0 mm 1 mps 726 mmHg 24%
    12:00 +35°C° 0 mm 1 mps 726 mmHg 22%
    13:00 +36°C° 0 mm 1 mps 726 mmHg 20%
    14:00 +35°C° 0 mm 1 mps 725 mmHg 20%
    15:00 +35°C° 0 mm 1 mps 725 mmHg 20%
    16:00 +35°C° 0 mm 1 mps 725 mmHg 21%
    17:00 +31°C° 0 mm 1 mps 724 mmHg 27%
    18:00 +28°C° 0 mm 1 mps 724 mmHg 33%
    19:00 +25°C° 0 mm 1 mps 724 mmHg 39%
    20:00 +24°C° 0 mm 1 mps 724 mmHg 42%
    21:00 +23°C° 0 mm 1 mps 724 mmHg 44%
    22:00 +22°C° 0 mm 1 mps 724 mmHg 47%
    23:00 +21°C° 0 mm 1 mps 724 mmHg 48%

    26 August, Saturday

    Time Temperature Precipitation Wind Pressure Humidity
    00:00 +21°C° 0 mm 1 mps 724 mmHg 49%
    01:00 +20°C° 0 mm 1 mps 724 mmHg 50%
    02:00 +20°C° 0 mm 1 mps 724 mmHg 51%
    03:00 +20°C° 0 mm 1 mps 724 mmHg 51%
    04:00 +20°C° 0 mm 1 mps 723 mmHg 52%
    05:00 +21°C° 0 mm 1 mps 724 mmHg 50%
    06:00 +23°C° 0 mm 1 mps 724 mmHg 47%
    07:00 +24°C° 0 mm 1 mps 724 mmHg 45%
    08:00 +27°C° 0 mm 1 mps 725 mmHg 39%
    09:00 +31°C° 0 mm 1 mps 725 mmHg 32%
    10:00 +34°C° 0 mm 1 mps 725 mmHg 26%
    11:00 +35°C° 0 mm 1 mps 725 mmHg 23%
    12:00 +35°C° 0 mm 1 mps 725 mmHg 21%
    13:00 +37°C° 0 mm 2 mps 724 mmHg 19%
    14:00 +37°C° 0 mm 2 mps 724 mmHg 19%
    15:00 +37°C° 0 mm 2 mps 724 mmHg 19%
    16:00 +36°C° 0 mm 2 mps 723 mmHg 19%
    17:00 +32°C° 0 mm 2 mps 723 mmHg 24%
    18:00 +29°C° 0 mm 1 mps 723 mmHg 30%
    19:00 +26°C° 0 mm 1 mps 723 mmHg 35%
    20:00 +25°C° 0 mm 1 mps 723 mmHg 36%
    21:00 +24°C° 0 mm 1 mps 723 mmHg 38%
    22:00 +23°C° 0 mm 1 mps 723 mmHg 39%
    23:00 +22°C° 0 mm 1 mps 723 mmHg 40%

    27 August, Sunday

    Time Temperature Precipitation Wind Pressure Humidity
    00:00 +22°C° 0 mm 1 mps 723 mmHg 41%
    01:00 +21°C° 0 mm 1 mps 722 mmHg 42%
    02:00 +21°C° 0 mm 1 mps 722 mmHg 43%
    03:00 +20°C° 0 mm 1 mps 722 mmHg 43%
    04:00 +20°C° 0 mm 1 mps 722 mmHg 44%
    05:00 +22°C° 0 mm 1 mps 722 mmHg 43%
    06:00 +23°C° 0 mm 1 mps 723 mmHg 42%
    07:00 +24°C° 0 mm 1 mps 723 mmHg 40%
    08:00 +28°C° 0 mm 1 mps 723 mmHg 34%
    09:00 +31°C° 0 mm 1 mps 723 mmHg 28%
    10:00 +34°C° 0 mm 1 mps 723 mmHg 22%
    11:00 +35°C° 0 mm 1 mps 723 mmHg 20%
    12:00 +36°C° 0 mm 1 mps 723 mmHg 19%
    13:00 +37°C° 0 mm 1 mps 722 mmHg 17%
    14:00 +37°C° 0 mm 1 mps 722 mmHg 18%
    15:00 +36°C° 0 mm 1 mps 722 mmHg 18%
    16:00 +36°C° 0 mm 1 mps 721 mmHg 19%
    17:00 +33°C° 0 mm 1 mps 721 mmHg 24%
    18:00 +29°C° 0 mm 1 mps 721 mmHg 29%
    19:00 +26°C° 0 mm 1 mps 721 mmHg 34%
    20:00 +25°C° 0 mm 1 mps 721 mmHg 36%
    21:00 +24°C° 0 mm 1 mps 721 mmHg 38%
    22:00 +23°C° 0 mm 1 mps 721 mmHg 40%
    23:00 +23°C° 0 mm 1 mps 721 mmHg 41%

    28 August, Monday

    Time Temperature Precipitation Wind Pressure Humidity
    00:00 +22°C° 0 mm 1 mps 721 mmHg 43%
    01:00 +22°C° 0 mm 1 mps 721 mmHg 44%
    02:00 +21°C° 0 mm 1 mps 720 mmHg 45%
    03:00 +21°C° 0 mm 1 mps 720 mmHg 46%
    04:00 +21°C° 0 mm 1 mps 720 mmHg 47%
    05:00 +22°C° 0 mm 1 mps 720 mmHg 46%
    06:00 +24°C° 0 mm 1 mps 721 mmHg 44%
    07:00 +25°C° 0 mm 1 mps 721 mmHg 43%
    08:00 +28°C° 0 mm 1 mps 721 mmHg 36%
    09:00 +31°C° 0 mm 1 mps 722 mmHg 30%
    10:00 +35°C° 0 mm 1 mps 722 mmHg 24%
    11:00 +36°C° 0 mm 2 mps 722 mmHg 22%
    12:00 +37°C° 0 mm 2 mps 721 mmHg 21%
    13:00 +37°C° 0 mm 2 mps 721 mmHg 20%
    14:00 +37°C° 0 mm 3 mps 721 mmHg 21%
    15:00 +37°C° 0 mm 3 mps 721 mmHg 22%
    16:00 +36°C° 0 mm 3 mps 721 mmHg 24%
    17:00 +33°C° 0.2 mm 3 mps 721 mmHg 33%
    18:00 +29°C° 0.2 mm 2 mps 721 mmHg 43%
    19:00 +26°C° 0.2 mm 2 mps 721 mmHg 52%
    20:00 +25°C° 0.5 mm 2 mps 721 mmHg 61%
    21:00 +23°C° 0.5 mm 1 mps 721 mmHg 70%
    22:00 +21°C° 0.5 mm 1 mps 722 mmHg 79%
    23:00 +21°C° 0.3 mm 1 mps 722 mmHg 80%
    Show more